This is the latest recevied weather packets stored in our database for station/object M0JUI-1. If no packets are shown the sender has not sent any weather packets the latest 10 day(s).
| Time | Temp. | Humidity | Pressure | Rain* | Wind** | Luminosity | Snow |
|---|---|---|---|---|---|---|---|
| 1787997824 | 15° C | 20% | 1004.1 hPa | 0.51 mm | - | 112 W/m² | - |
| 1787997524 | 15.56° C | 20% | 1004 hPa | 0.76 mm | - | 98 W/m² | - |
| 1787997224 | 15.56° C | 20% | 1004.2 hPa | 0.76 mm | - | 56 W/m² | - |
| 1787996925 | 15.56° C | 20% | 1004.2 hPa | 0.76 mm | - | 65 W/m² | - |
| 1787996625 | 15.56° C | 20% | 1004.3 hPa | 0.51 mm | - | 70 W/m² | - |
| 1787996324 | 15.56° C | 20% | 1004.2 hPa | 0.51 mm | - | 118 W/m² | - |
| 1787996024 | 15.56° C | 20% | 1004.3 hPa | 0.51 mm | - | 139 W/m² | - |
| 1787995724 | 15.56° C | 20% | 1004.3 hPa | 0.76 mm | - | 124 W/m² | - |
| 1787995424 | 15.56° C | 20% | 1004.3 hPa | 0.76 mm | - | 93 W/m² | - |
| 1787995124 | 15.56° C | 20% | 1004.5 hPa | 0.51 mm | - | 81 W/m² | - |
| 1787994824 | 15.56° C | 20% | 1004.1 hPa | 0.51 mm | - | 85 W/m² | - |
| 1787994524 | 15.56° C | 20% | 1004.3 hPa | 0.76 mm | - | 41 W/m² | - |
| 1787994224 | 15.56° C | 20% | 1004.4 hPa | 0.76 mm | - | 47 W/m² | - |
| 1787993925 | 15.56° C | 20% | 1004.2 hPa | 0.51 mm | - | 53 W/m² | - |
| 1787993625 | 15.56° C | 20% | 1004.4 hPa | 0.51 mm | - | 50 W/m² | - |
| 1787993324 | 15.56° C | 20% | 1004.4 hPa | 0.51 mm | - | 70 W/m² | - |
| 1787993024 | 15.56° C | 20% | 1004.3 hPa | 0.51 mm | - | 71 W/m² | - |
| 1787992725 | 15.56° C | 20% | 1004.4 hPa | 0.51 mm | - | 97 W/m² | - |
| 1787992424 | 15.56° C | 20% | 1004.5 hPa | 0.51 mm | - | 72 W/m² | - |
| 1787992124 | 15° C | 20% | 1004.4 hPa | 0.25 mm | - | 60 W/m² | - |
| 1787991824 | 15° C | 20% | 1004.6 hPa | 0.25 mm | - | 72 W/m² | - |
| 1787991525 | 15° C | 20% | 1004.6 hPa | 0.25 mm | - | 95 W/m² | - |
| 1787991225 | 15° C | 20% | 1004.4 hPa | 0.25 mm | - | 76 W/m² | - |
| 1787990925 | 15° C | 20% | 1004.6 hPa | 0 mm | - | 51 W/m² | - |
| 1787990624 | 14.44° C | 20% | 1004.4 hPa | 0 mm | - | 35 W/m² | - |
* Rain latest hour (hover to see other rain measurements)
** Current wind speed in m/s (hover to see current wind gust speed)